Temp
-11 -11 -11 -12 -12 -11 -11 -11 -12 -12 -12 -12 -12 -12 -12 -12 -12 -13 -13 -13 -13 -13 -13 -14 -14 -14 -14 -14 -14 -13 -13 -13 -13 -13 -13 -13 -12 -12 -11 -12 -12 -12 -12
-11 -11 -12 -12 -12 -11 -11 -11 -12 -12 -12 -12 -12 -12 -12 -12 -13 -13 -13 -13 -13 -13 -13 -13 -13 -14 -14 -13 -14 -13 -13 -13 -13 -13 -13 -13 -13 -12 -12 -12 -12 -12 -12
-11 -11 -12 -12 -12 -12 -11 -11 -11 -12 -12 -12 -12 -12 -12 -12 -12 -13 -12 -12 -13 -13 -13 -13 -13 -13 -14 -13 -13 -13 -13 -12 -13 -13 -12 -13 -13 -12 -12 -12 -12 -12 -11
-11 -11 -12 -12 -12 -11 -11 -11 -11 -11 -12 -12 -12 -12 -13 -12 -12 -12 -12 -12 -12 -13 -12 -13 -13 -13 -13 -13 -13 -12 -12 -12 -12 -12 -12 -12 -12 -12 -12 -12 -12 -12 -12
-11 -12 -11 -11 -11 -11 -12 -12 -12 -12 -12 -12 -12 -12 -13 -13 -12 -12 -12 -12 -12 -12 -12 -12 -13 -13 -13 -12 -12 -11 -11 -12 -12 -12 -12 -12 -12 -12 -12 -12 -12 -12 -12
-11 -11 -11 -11 -12 -12 -12 -12 -12 -12 -12 -12 -12 -12 -12 -13 -13 -12 -12 -12 -12 -12 -12 -12 -12 -12 -12 -12 -11 -10 -11 -11 -11 -12 -11 -12 -12 -12 -12 -12 -12 -13 -13
-11 -11 -11 -12 -12 -12 -12 -12 -12 -12 -12 -12 -13 -12 -12 -13 -12 -13 -12 -11 -12 -12 -11 -11 -12 -12 -12 -12 -11 -11 -11 -11 -11 -12 -12 -12 -12 -12 -12 -12 -12 -12 -12
-11 -12 -12 -12 -12 -12 -12 -12 -12 -12 -12 -12 -13 -12 -12 -12 -12 -12 -12 -11 -12 -12 -12 -11 -11 -11 -11 -11 -11 -11 -11 -11 -11 -11 -12 -11 -12 -12 -12 -13 -13 -13 -13
-11 -11 -12 -12 -12 -12 -12 -12 -12 -12 -13 -12 -13 -12 -12 -12 -12 -12 -12 -12 -12 -11 -11 -11 -11 -11 -11 -11 -11 -11 -10 -11 -11 -11 -11 -11 -11 -12 -12 -12 -12 -12 -13
-11 -11 -11 -12 -12 -12 -12 -12 -12 -12 -13 -13 -13 -12 -12 -12 -12 -12 -12 -11 -12 -11 -11 -11 -11 -11 -11 -11 -11 -12 -12 -11 -12 -11 -11 -12 -12 -12 -12 -12 -12 -13 -13
-11 -11 -11 -11 -12 -12 -12 -12 -12 -12 -13 -13 -13 -12 -12 -12 -12 -12 -12 -12 -12 -11 -11 -11 -11 -11 -11 -11 -11 -11 -12 -11 -11 -12 -12 -12 -12 -12 -12 -13 -13 -13 -13
-11 -11 -12 -12 -12 -12 -12 -13 -12 -12 -13 -12 -12 -12 -12 -12 -12 -12 -12 -11 -11 -12 -12 -11 -11 -10 -11 -11 -11 -11 -11 -12 -12 -12 -12 -12 -12 -13 -13 -13 -13 -13 -13
-12 -12 -12 -12 -12 -13 -13 -13 -13 -13 -12 -12 -12 -12 -12 -12 -12 -11 -11 -11 -11 -11 -12 -12 -11 -11 -11 -11 -11 -12 -12 -12 -12 -12 -12 -12 -13 -13 -13 -13 -13 -12 -12
-12 -12 -12 -12 -12 -13 -13 -13 -13 -13 -13 -12 -12 -12 -12 -12 -12 -12 -12 -11 -11 -12 -12 -12 -12 -12 -12 -12 -12 -12 -12 -12 -12 -12 -13 -13 -13 -13 -13 -13 -13 -12 -13
-12 -12 -12 -12 -12 -13 -12 -13 -13 -12 -13 -12 -12 -12 -12 -12 -13 -12 -12 -12 -12 -12 -12 -12 -13 -13 -13 -13 -13 -13 -12 -13 -13 -12 -12 -12 -13 -13 -13 -13 -13 -13 -13
-12 -12 -12 -12 -12 -12 -12 -12 -12 -12 -12 -12 -12 -12 -12 -12 -12 -12 -12 -12 -12 -12 -12 -12 -12 -12 -12 -13 -13 -13 -13 -13 -13 -13 -13 -13 -13 -13 -13 -13 -13 -13 -14
-12 -12 -12 -12 -12 -12 -12 -12 -12 -12 -12 -13 -12 -12 -12 -12 -12 -12 -13 -13 -13 -13 -13 -13 -13 -13 -13 -13 -13 -13 -13 -13 -13 -13 -12 -12 -13 -13 -13 -13 -13 -14 -14
-12 -12 -12 -12 -12 -12 -12 -12 -12 -12 -13 -13 -13 -13 -13 -13 -13 -13 -13 -12 -12 -13 -13 -13 -13 -13 -13 -13 -13 -13 -13 -12 -12 -13 -12 -12 -13 -13 -14 -14 -14 -14 -15
-12 -12 -12 -12 -12 -12 -12 -12 -12 -12 -13 -13 -13 -13 -13 -13 -13 -13 -13 -13 -13 -12 -13 -13 -13 -13 -13 -13 -13 -13 -13 -13 -12 -13 -13 -13 -13 -14 -14 -14 -14 -14 -15
-12 -12 -12 -12 -12 -12 -12 -12 -12 -12 -12 -13 -13 -13 -13 -13 -13 -13 -13 -13 -13 -13 -13 -13 -13 -13 -13 -13 -13 -13 -13 -13 -13 -13 -13 -13 -13 -13 -13 -13 -14 -14 -14
-12 -12 -12 -12 -12 -12 -12 -12 -12 -12 -12 -12 -12 -13 -13 -13 -13 -13 -13 -13 -13 -13 -13 -13 -13 -13 -13 -13 -13 -13 -13 -13 -13 -13 -13 -13 -13 -13 -13 -13 -13 -13 -13
-12 -11 -11 -12 -12 -12 -12 -11 -11 -12 -12 -12 -12 -12 -12 -12 -12 -12 -13 -13 -13 -13 -13 -13 -13 -13 -13 -13 -13 -13 -13 -13 -14 -13 -13 -12 -12 -12 -13 -13 -13 -14 -14
-13 -13 -12 -12 -12 -12 -12 -11 -11 -11 -11 -12 -12 -12 -12 -12 -12 -12 -12 -12 -12 -12 -13 -13 -13 -13 -13 -13 -13 -13 -14 -14 -13 -13 -13 -13 -13 -13 -13 -13 -13 -14 -14
-13 -13 -13 -13 -12 -12 -12 -12 -12 -11 -11 -11 -11 -12 -12 -12 -12 -12 -12 -12 -12 -13 -13 -13 -13 -13 -13 -13 -13 -13 -13 -13 -13 -13 -13 -13 -13 -13 -13 -14 -14 -14 -14
-12 -13 -13 -13 -13 -13 -13 -12 -12 -12 -12 -12 -11 -11 -12 -12 -11 -12 -12 -12 -12 -12 -12 -12 -12 -12 -13 -13 -13 -13 -13 -13 -13 -13 -13 -13 -13 -13 -13 -14 -14 -14 -14
-13 -13 -13 -13 -12 -13 -13 -12 -12 -12 -12 -12 -12 -12 -12 -12 -12 -12 -12 -12 -13 -13 -13 -12 -12 -12 -12 -12 -12 -12 -13 -13 -13 -13 -13 -13 -13 -13 -13 -14 -14 -14 -14
Height
5723 5722 5721 5721 5720 5717 5715 5714 5713 5711 5711 5709 5709 5708 5706 5705 5703 5701 5699 5697 5694 5694 5695 5695 5695 5696 5698 5701 5703 5705 5706 5711 5714 5717 5720 5724 5730 5736 5728 5746 5749 5754 5761
5720 5720 5719 5717 5715 5713 5713 5713 5712 5710 5709 5708 5709 5708 5706 5705 5703 5701 5698 5696 5696 5695 5695 5697 5696 5698 5700 5702 5704 5705 5708 5713 5717 5719 5722 5727 5730 5736 5740 5744 5748 5754 5760
5718 5717 5716 5714 5714 5712 5712 5712 5710 5709 5708 5708 5708 5708 5707 5706 5704 5701 5698 5697 5695 5696 5695 5696 5699 5700 5699 5702 5704 5706 5710 5714 5717 5721 5724 5728 5732 5736 5738 5741 5750 5755 5759
5716 5714 5713 5713 5712 5711 5711 5710 5709 5708 5708 5708 5709 5708 5707 5707 5704 5702 5699 5698 5697 5697 5697 5698 5699 5700 5701 5703 5705 5707 5711 5715 5718 5722 5725 5728 5732 5736 5738 5746 5751 5755 5760
5714 5713 5712 5711 5709 5709 5709 5707 5708 5708 5707 5707 5708 5709 5709 5708 5706 5704 5703 5701 5701 5700 5700 5701 5702 5703 5703 5704 5705 5708 5712 5717 5720 5724 5727 5730 5734 5738 5743 5748 5751 5756 5763
5713 5713 5711 5709 5708 5707 5707 5706 5707 5707 5707 5707 5708 5710 5711 5710 5708 5705 5705 5705 5704 5704 5704 5705 5707 5707 5707 5707 5707 5711 5715 5719 5722 5727 5729 5732 5736 5741 5746 5750 5756 5761 5766
5713 5711 5710 5708 5707 5706 5706 5705 5705 5706 5707 5707 5708 5711 5713 5712 5711 5709 5708 5708 5708 5708 5707 5708 5710 5711 5713 5715 5717 5719 5721 5722 5725 5732 5736 5738 5742 5746 5752 5756 5760 5764 5767
5712 5711 5710 5709 5707 5707 5706 5706 5705 5705 5706 5707 5709 5712 5714 5714 5713 5711 5711 5711 5711 5712 5712 5714 5715 5716 5717 5720 5723 5727 5729 5730 5732 5736 5740 5744 5747 5752 5755 5760 5763 5767 5770
5714 5713 5711 5710 5709 5708 5708 5707 5705 5704 5705 5707 5709 5712 5715 5715 5716 5715 5714 5716 5717 5718 5719 5720 5721 5723 5724 5726 5728 5733 5736 5738 5739 5743 5746 5750 5753 5756 5759 5762 5767 5770 5773
5715 5714 5713 5713 5712 5711 5710 5709 5706 5705 5705 5707 5710 5712 5716 5718 5719 5719 5720 5720 5721 5723 5724 5725 5726 5729 5730 5732 5734 5738 5741 5743 5745 5748 5750 5753 5757 5761 5764 5767 5769 5772 5774
5717 5715 5715 5714 5714 5713 5712 5710 5709 5708 5708 5709 5712 5714 5716 5719 5721 5722 5724 5724 5725 5726 5727 5729 5730 5732 5733 5736 5737 5739 5743 5747 5749 5750 5754 5757 5761 5764 5767 5768 5771 5774 5776
5718 5718 5717 5717 5717 5716 5715 5712 5711 5710 5711 5712 5714 5716 5718 5721 5723 5725 5726 5728 5729 5730 5730 5732 5734 5736 5737 5740 5742 5743 5747 5750 5752 5754 5757 5761 5764 5766 5768 5772 5774 5775 5776
5719 5719 5718 5719 5719 5720 5719 5717 5716 5716 5716 5716 5717 5719 5721 5724 5726 5728 5729 5730 5731 5734 5735 5736 5738 5740 5742 5744 5745 5747 5749 5751 5754 5757 5760 5763 5766 5769 5771 5773 5774 5775 5775
5721 5721 5721 5721 5721 5723 5723 5723 5723 5722 5721 5721 5721 5722 5724 5726 5727 5729 5731 5733 5734 5737 5739 5740 5742 5745 5747 5748 5751 5752 5754 5756 5759 5762 5764 5766 5768 5771 5772 5773 5773 5773 5774
5723 5723 5724 5724 5724 5725 5726 5726 5727 5728 5727 5728 5728 5728 5729 5731 5733 5734 5735 5737 5739 5741 5743 5745 5746 5749 5750 5752 5754 5756 5758 5760 5762 5763 5765 5766 5767 5769 5771 5771 5771 5771 5771
5724 5725 5726 5727 5727 5728 5729 5730 5731 5733 5733 5734 5734 5735 5735 5736 5738 5740 5741 5743 5745 5746 5747 5749 5750 5752 5753 5754 5757 5759 5760 5760 5761 5763 5764 5766 5767 5768 5768 5768 5768 5767 5767
5724 5726 5727 5729 5730 5731 5732 5734 5735 5737 5737 5738 5739 5740 5740 5741 5743 5743 5744 5746 5747 5748 5749 5751 5752 5754 5755 5756 5758 5760 5761 5762 5763 5763 5763 5764 5765 5766 5766 5767 5766 5765 5763
5724 5725 5727 5730 5731 5733 5735 5736 5738 5740 5741 5742 5742 5743 5745 5746 5747 5747 5748 5749 5751 5751 5752 5753 5754 5755 5756 5757 5759 5760 5762 5762 5762 5763 5763 5763 5763 5763 5763 5764 5764 5763 5761
5723 5725 5727 5729 5730 5733 5735 5737 5738 5740 5742 5743 5745 5746 5747 5748 5749 5750 5750 5751 5752 5752 5753 5753 5754 5754 5755 5757 5759 5759 5760 5761 5761 5761 5762 5762 5761 5761 5760 5760 5760 5760 5759
5720 5723 5725 5727 5730 5732 5734 5736 5738 5740 5741 5742 5744 5745 5747 5748 5749 5750 5751 5752 5752 5752 5753 5753 5754 5755 5756 5757 5758 5758 5759 5759 5759 5760 5759 5758 5758 5757 5756 5756 5756 5755 5756
5718 5720 5723 5725 5727 5729 5731 5733 5735 5737 5739 5741 5742 5743 5745 5746 5748 5749 5750 5751 5751 5752 5752 5753 5753 5754 5755 5756 5756 5757 5757 5756 5755 5755 5755 5755 5755 5753 5753 5753 5751 5750 5748
5717 5718 5720 5722 5724 5726 5728 5730 5732 5734 5736 5737 5738 5739 5741 5743 5744 5746 5747 5748 5749 5750 5750 5751 5751 5752 5752 5753 5753 5753 5754 5753 5753 5752 5751 5750 5749 5749 5748 5746 5745 5745 5744
5711 5714 5717 5719 5720 5722 5724 5726 5728 5730 5731 5733 5735 5735 5735 5738 5740 5741 5743 5744 5745 5747 5747 5748 5748 5749 5749 5749 5749 5749 5749 5748 5747 5746 5746 5745 5744 5743 5741 5740 5739 5738 5737
5704 5708 5710 5712 5714 5717 5719 5721 5723 5725 5727 5728 5731 5732 5732 5732 5734 5736 5737 5738 5740 5741 5742 5743 5743 5743 5743 5743 5743 5744 5743 5743 5742 5741 5740 5738 5737 5736 5734 5733 5731 5730 5729
5698 5701 5704 5706 5708 5709 5711 5713 5716 5718 5720 5722 5723 5725 5726 5727 5728 5729 5730 5731 5732 5733 5734 5736 5736 5736 5737 5737 5737 5737 5736 5735 5734 5733 5732 5732 5731 5730 5729 5728 5725 5723 5722
5688 5691 5694 5697 5699 5702 5704 5705 5707 5710 5712 5714 5715 5717 5719 5720 5721 5722 5723 5724 5725 5726 5726 5727 5727 5727 5727 5728 5729 5729 5728 5727 5727 5725 5724 5724 5723 5722 5721 5719 5717 5717 5713
Wind_Speed
12 16 15 16 17 16 15 15 13 12 11 11 8 4 3 6 10 15 11 11 7 4 5 6 8 9 8 10 9 10 10 14 15 17 21 20 26 23 17 23 27 20 19
13 11 14 14 13 13 12 12 11 9 9 7 4 2 3 7 11 13 8 6 3 4 6 7 7 7 3 6 10 15 15 16 17 19 21 24 24 23 26 24 25 22 24
9 12 12 13 10 11 10 11 10 8 7 3 2 2 5 6 8 10 8 5 4 5 6 8 10 8 12 15 13 15 16 18 20 18 23 25 31 22 25 28 20 20 23
12 12 11 8 8 9 11 10 7 7 5 3 3 5 5 5 9 8 6 7 6 5 6 9 10 8 11 14 11 11 14 18 18 19 20 15 16 16 16 16 18 18 22
8 6 8 7 8 8 9 8 5 6 4 1 5 6 5 7 11 5 11 10 12 11 11 10 10 8 10 14 10 16 19 22 14 14 13 16 15 17 22 15 23 27 24
6 7 7 6 5 6 6 4 5 4 2 1 3 3 5 7 13 10 7 10 11 14 14 15 11 18 17 19 20 20 15 19 18 23 17 22 22 20 24 26 24 22 15
8 7 4 6 6 4 2 4 3 2 1 1 1 4 5 7 11 12 11 15 16 17 18 20 18 18 20 23 30 33 31 38 38 32 29 29 27 27 23 21 20 18 14
6 4 6 8 9 7 6 4 2 1 1 2 3 8 8 9 14 16 12 14 19 22 24 21 20 21 23 29 29 27 29 36 36 34 30 26 26 24 24 22 19 17 15
5 8 9 10 12 10 9 8 6 1 2 7 5 10 11 9 13 17 14 17 22 21 21 21 26 28 28 29 28 23 28 26 28 28 27 26 24 24 23 22 21 18 15
4 7 9 9 10 10 9 9 8 6 5 11 8 12 14 12 12 15 15 15 18 20 21 20 19 18 20 23 27 22 17 23 24 22 23 22 23 22 21 19 18 15 12
3 6 8 11 13 14 12 9 11 10 8 9 10 13 14 11 11 11 13 14 14 16 18 18 18 18 17 19 21 26 23 21 21 21 22 24 23 22 19 17 14 12 9
2 4 5 8 11 15 17 16 14 14 10 10 12 12 13 9 8 9 11 12 11 15 19 21 18 23 27 26 25 26 25 23 22 24 23 21 18 18 16 12 10 8 6
2 3 4 6 10 13 18 23 17 17 13 12 13 12 10 9 7 7 8 8 13 17 17 20 20 22 24 22 22 23 24 25 24 22 19 16 14 13 10 8 5 6 4
2 4 4 5 8 10 12 17 19 20 20 18 19 19 16 13 13 13 15 14 16 15 16 20 20 18 20 23 22 22 21 19 18 16 15 12 10 9 8 8 5 4 6
2 3 5 6 7 8 9 12 15 17 21 22 25 26 25 23 23 22 22 21 23 23 23 22 21 21 21 18 16 15 14 13 11 10 9 9 9 9 8 5 4 4 5
5 3 5 7 8 8 9 12 18 21 22 22 22 22 23 21 20 21 20 20 19 19 18 16 16 14 14 13 12 12 11 11 10 9 8 7 6 5 3 1 3 7 9
6 6 5 7 9 10 11 13 15 17 18 16 15 15 15 17 14 13 16 17 16 15 14 12 11 11 12 13 12 13 12 11 9 7 6 5 2 1 1 1 5 12 13
8 8 8 7 9 10 11 11 12 12 11 11 11 12 12 11 11 11 11 10 9 9 8 8 6 7 9 9 9 8 7 7 5 3 1 0 2 3 4 6 8 6 10
10 8 8 10 11 11 12 12 12 11 10 8 6 6 5 4 5 5 5 4 4 5 5 3 3 3 7 6 5 3 2 2 3 4 3 4 5 6 9 9 8 7 8
11 11 9 7 8 11 12 12 12 12 12 11 9 7 5 4 4 2 1 1 1 1 1 3 3 3 7 7 4 1 5 7 6 6 6 6 7 7 8 9 11 13 13
12 11 10 9 9 9 11 13 13 13 13 15 14 13 12 10 8 6 5 6 5 3 3 5 7 6 8 9 10 9 8 9 10 12 9 7 9 13 14 14 16 16 18
15 14 13 13 11 10 11 11 12 14 16 15 17 18 16 14 13 12 12 11 10 9 8 9 11 13 13 13 14 14 14 14 15 14 14 14 15 16 16 18 21 22 22
22 20 18 16 15 15 13 13 12 13 15 16 18 21 19 18 18 16 16 16 15 14 13 13 14 16 17 18 19 18 19 20 22 21 20 19 20 22 24 24 25 25 25
27 24 23 23 22 20 19 18 17 17 16 15 15 17 20 22 20 20 20 18 17 17 17 18 18 19 20 22 23 23 23 24 25 25 26 26 26 26 26 27 30 32 28
30 30 29 27 28 26 24 21 19 19 19 19 20 17 19 21 22 22 23 23 22 21 20 18 18 19 21 23 25 26 27 27 27 28 28 28 27 28 29 29 30 34 33
38 36 35 36 34 32 29 28 24 22 20 20 20 21 22 22 23 24 24 24 23 23 23 23 22 24 24 23 24 26 29 30 31 32 33 32 31 32 33 34 36 35 35
Wind_Direction
287 285 290 291 300 301 309 305 297 295 298 294 298 319 346 357 345 340 350 17 45 96 111 124 139 132 146 142 156 177 176 174 184 183 178 176 168 164 182 191 177 166 171
291 287 297 301 305 318 309 299 305 299 292 291 288 325 6 10 347 2 357 9 79 148 129 139 132 132 156 168 144 152 159 167 173 163 165 173 180 178 181 189 191 184 180
297 298 308 304 317 312 300 291 311 308 297 258 305 18 2 4 5 0 24 59 80 122 149 159 132 137 139 135 132 148 159 169 183 177 183 186 176 173 186 186 212 173 172
297 307 307 301 314 319 287 283 302 318 310 211 238 27 34 18 9 4 49 80 130 139 141 147 129 150 112 148 146 161 171 176 181 176 176 177 178 152 168 169 186 184 164
327 315 313 324 312 306 279 285 300 318 317 239 176 33 60 39 28 62 90 92 82 102 105 123 115 97 77 80 123 155 166 171 153 154 155 166 130 144 151 160 152 151 150
330 320 323 326 327 312 306 295 282 294 324 246 212 65 86 62 42 66 109 93 96 85 109 122 110 93 89 100 123 135 146 130 127 137 116 125 128 143 139 133 135 142 145
325 333 32 22 11 9 357 328 314 248 348 207 149 141 125 76 44 99 90 102 115 93 105 108 109 104 110 111 107 116 104 118 114 118 117 120 125 127 131 135 139 142 143
353 34 51 45 43 36 38 18 23 256 271 200 148 147 137 101 60 97 102 100 113 105 109 105 105 113 103 118 118 119 116 117 114 113 115 121 128 129 131 137 139 134 129
39 58 62 61 61 58 50 34 23 350 177 179 165 149 139 123 76 77 95 100 116 115 110 107 116 113 110 118 123 124 118 115 110 102 111 117 126 133 137 136 131 126 125
75 62 66 69 59 61 49 32 44 67 138 163 150 153 145 124 93 71 102 106 107 119 117 109 120 124 118 118 121 123 131 131 117 108 108 113 124 123 121 118 123 127 124
117 80 68 63 62 54 45 63 69 76 105 117 140 149 157 134 122 109 103 107 111 124 130 119 113 124 127 121 125 123 127 129 121 115 112 116 121 123 123 123 123 123 124
133 104 87 77 70 63 54 72 71 73 78 97 120 136 153 152 132 117 115 117 115 117 127 128 122 125 119 124 126 123 127 129 127 120 120 123 125 123 122 122 112 98 73
113 99 85 80 86 81 71 71 76 77 81 97 112 120 130 135 128 118 121 118 129 134 136 132 130 130 127 129 131 130 133 132 131 130 132 128 120 115 114 109 93 110 110
96 92 96 100 107 105 92 86 83 84 85 90 102 109 106 104 109 118 124 123 122 136 127 126 125 125 128 129 131 135 136 135 135 132 123 119 121 124 127 132 127 64 19
125 92 99 109 117 126 113 98 95 102 98 94 91 93 98 98 96 100 107 110 115 122 122 121 122 125 125 124 126 125 124 122 118 122 126 129 124 121 114 95 54 22 352
157 129 109 118 119 113 113 110 113 111 104 100 97 96 97 94 97 101 104 106 108 110 112 115 117 118 122 122 121 116 115 116 109 104 106 112 117 111 109 85 17 346 331
162 164 148 139 137 130 124 124 124 123 115 106 95 91 90 95 99 101 102 105 104 100 98 100 109 117 122 121 119 119 107 92 93 93 88 97 111 154 192 24 331 323 316
165 156 168 170 166 161 154 147 140 139 130 119 105 100 94 91 91 91 94 101 104 102 107 100 110 135 145 142 133 112 99 73 59 71 67 1 280 286 304 299 303 301 309
189 182 182 185 188 190 187 181 171 164 162 159 153 145 131 108 86 76 84 99 97 101 111 117 81 127 167 152 142 140 53 31 292 277 261 277 262 270 284 295 304 311 295
200 203 197 187 197 206 207 204 206 200 195 202 203 207 215 221 231 205 178 156 153 194 185 170 159 144 145 145 146 303 321 327 317 303 303 309 309 310 303 305 300 299 304
202 199 201 205 206 208 211 221 221 220 217 220 230 232 237 245 251 254 253 259 260 257 246 229 223 221 220 234 256 274 286 299 304 310 307 299 297 300 303 302 302 311 317
231 226 219 218 222 225 226 228 224 226 232 237 239 244 246 252 256 255 259 261 263 267 266 255 235 231 237 241 249 262 276 286 293 292 288 282 287 289 291 296 302 309 311
232 242 248 246 237 233 242 245 243 239 234 227 237 249 259 251 252 257 264 273 278 275 271 273 272 260 253 255 258 266 277 285 286 285 281 276 275 282 291 298 299 301 307
235 233 238 245 246 242 237 242 247 250 251 249 243 231 242 257 253 253 257 260 266 273 277 275 270 267 264 264 267 272 276 280 281 281 283 287 287 285 289 295 299 304 309
241 245 242 238 242 248 248 242 248 255 256 255 252 247 241 241 248 249 248 252 257 264 266 267 269 268 267 268 270 273 273 276 279 278 279 279 281 284 290 293 298 302 306
247 245 246 247 242 237 242 249 251 252 255 257 256 250 247 250 248 246 246 248 251 256 260 264 268 271 273 274 276 276 277 276 277 279 283 284 284 285 287 291 296 300 299